Strona główna
METAR-TAF:

METAR-TAF

Lotnisko :

Akron, Ohio, Stany Zjednoczone

Szerokość geograficzna: 41-02-15N, Długość geograficzna: 081-27-51W, wysokość: 325 m

Aktualna obserwacja pogody

Raport powstał 47 minut temu, godzina 00:54 UTC
Cisza
Temperatura 1°C
Wilgotność 75%
Ciśnienie 1018 hPa
Widzialność: 16.1 km
bezchmurnie

METAR: KAKR 060054Z AUTO 00000KT 10SM CLR 01/M03 A3007 RMK AO2 SLP192 T00061033 /

czas: 20:41 (01:41 UTC)


TAF: brakujący

Obserwacja i prognoza pogody dla ponad 4000 lotnisk (raport METAR i TAF).

Dostępne stacje oznaczono żółtymi i czerwonymi punktami na mapie.

Najedź kursorem aby zobaczyć nazwę stacji.

Kliknij aby zobaczyć obserwacje i prognozy pogody.

Aby zmienić mapę: kliknij na zielony przycisk z czarnym krzyżykiem, aby powiększyć; na zielony przycisk z myślnikiem, aby pomniejszyć; na zielone strzałki, aby przejść do map sąsiednich.


METAR-TAF: